EW0923 Weather Reports


time (UTC)temp
C
wind
direction
speed
KPH
gust
KPH
rain 1hr
cm
rain 24hr
cm
rain mn
cm
humidity
%
barometer
mb
20260506202028 20 284 8.0 29.0 0.00 0.00 0.00 72 1006.6
20260506201544 20 276 11.3 29.0 0.00 0.00 0.00 71 1006.7
20260506201028 20 246 4.8 20.9 0.00 0.00 0.00 71 1006.7
20260506200527 20 298 9.7 22.5 0.00 0.00 0.00 72 1006.7
20260506200117 20 181 8.0 22.5 0.00 0.00 0.00 72 1006.8
20260506195527 19 220 8.0 20.9 0.00 0.00 0.00 73 1006.8
20260506195028 19 279 4.8 22.5 0.00 0.00 0.00 72 1006.9
20260506194543 19 277 9.7 27.4 0.00 0.00 0.00 73 1006.8
20260506194028 19 256 8.0 27.4 0.00 0.00 0.00 73 1007.0
20260506193527 19 319 9.7 24.1 0.00 0.00 0.00 74 1007.3
20260506193045 19 255 4.8 12.9 0.00 0.00 0.00 75 1007.4
20260506192525 19 272 4.8 19.3 0.00 0.00 0.00 75 1007.4
20260506192026 19 304 3.2 19.3 0.00 0.00 0.00 75 1007.3
20260506191540 19 210 4.8 22.5 0.00 0.00 0.00 75 1007.4
20260506191025 18 239 9.7 22.5 0.00 0.00 0.00 75 1007.5
20260506190528 18 188 6.4 19.3 0.00 0.00 0.00 75 1007.5
20260506190036 18 268 4.8 20.9 0.00 0.00 0.00 75 1007.5
20260506185527 18 253 6.4 20.9 0.00 0.00 0.00 75 1007.6
20260506185027 18 275 8.0 20.9 0.00 0.00 0.00 76 1007.5
20260506184546 18 235 6.4 20.9 0.00 0.00 0.00 76 1007.5
20260506184025 18 92 6.4 20.9 0.00 0.00 0.00 76 1007.6
20260506183527 18 218 9.7 22.5 0.00 0.00 0.00 76 1007.7
20260506183044 18 159 8.0 22.5 0.00 0.00 0.00 76 1007.8
20260506182525 18 310 6.4 24.1 0.00 0.00 0.00 76 1007.9
20260506182025 18 297 6.4 24.1 0.00 0.00 0.00 76 1007.8
20260506181544 18 225 11.3 24.1 0.00 0.00 0.00 76 1007.8
20260506181025 18 236 4.8 27.4 0.00 0.00 0.00 76 1007.8
20260506180529 18 221 8.0 27.4 0.00 0.00 0.00 76 1007.9
20260506180048 18 279 9.7 19.3 0.00 0.00 0.00 75 1007.9
20260506175527 18 290 8.0 20.9 0.00 0.00 0.00 75 1008.0
20260506175024 18 236 6.4 20.9 0.00 0.00 0.00 75 1008.0
20260506174545 18 278 6.4 19.3 0.00 0.00 0.00 74 1008.1
20260506174028 18 71 6.4 29.0 0.00 0.00 0.00 74 1008.0
20260506173529 18 259 11.3 30.6 0.00 0.00 0.00 74 1008.0
20260506173053 18 218 14.5 30.6 0.00 0.00 0.00 73 1008.2
20260506172527 18 137 8.0 22.5 0.00 0.00 0.00 74 1008.1
20260506172030 18 213 6.4 22.5 0.00 0.00 0.00 74 1008.3
20260506171551 18 244 6.4 22.5 0.00 0.00 0.00 74 1008.1
20260506171027 19 290 4.8 17.7 0.00 0.00 0.00 74 1008.3
20260506170526 19 286 4.8 19.3 0.00 0.00 0.00 73 1008.4
20260506170042 19 236 6.4 20.9 0.00 0.00 0.00 73 1008.5
20260506165528 19 229 6.4 20.9 0.00 0.00 0.00 73 1008.4
20260506165032 19 236 8.0 20.9 0.00 0.00 0.00 75 1008.4
20260506164543 18 227 8.0 20.9 0.00 0.00 0.00 75 1008.4
20260506164027 19 252 9.7 20.9 0.00 0.00 0.00 75 1008.6
20260506163525 19 285 4.8 16.1 0.00 0.00 0.00 76 1008.6
20260506163049 19 274 6.4 27.4 0.00 0.00 0.00 74 1008.6
20260506162530 19 268 4.8 29.0 0.00 0.00 0.00 73 1009.0
20260506162024 19 9 8.0 29.0 0.00 0.00 0.00 69 1009.1
20260506161553 20 252 9.7 29.0 0.00 0.00 0.00 67 1009.3
20260506161027 20 253 9.7 27.4 0.00 0.00 0.00 68 1009.4
20260506160527 20 221 3.2 19.3 0.00 0.00 0.00 67 1009.4
20260506160045 20 279 4.8 27.4 0.00 0.00 0.00 65 1009.5
20260506155527 20 217 8.0 27.4 0.00 0.00 0.00 65 1009.6
20260506155027 20 265 6.4 29.0 0.00 0.00 0.00 64 1009.6
20260506154544 20 166 6.4 29.0 0.00 0.00 0.00 63 1009.6
20260506154025 20 264 8.0 24.1 0.00 0.00 0.00 63 1009.5
20260506153525 20 259 4.8 19.3 0.00 0.00 0.00 63 1009.5
20260506153043 20 276 4.8 27.4 0.00 0.00 0.00 63 1009.4
20260506152528 20 280 9.7 27.4 0.00 0.00 0.00 63 1009.4
20260506152028 20 221 4.8 20.9 0.00 0.00 0.00 63 1009.4
20260506151546 20 255 6.4 20.9 0.00 0.00 0.00 62 1009.5
20260506151024 20 273 4.8 20.9 0.00 0.00 0.00 62 1009.6
20260506150527 20 253 4.8 19.3 0.00 0.00 0.00 62 1009.6
20260506150045 20 130 8.0 19.3 0.00 0.00 0.00 62 1009.5
20260506145528 20 244 4.8 19.3 0.00 0.00 0.00 62 1009.5
20260506145028 20 277 8.0 22.5 0.00 0.00 0.00 63 1009.6
20260506144543 20 169 6.4 22.5 0.00 0.00 0.00 62 1009.6
20260506144030 20 262 6.4 22.5 0.00 0.00 0.00 62 1009.6
20260506143527 20 271 4.8 17.7 0.00 0.00 0.00 63 1009.6
20260506143042 20 207 4.8 22.5 0.00 0.00 0.00 63 1009.7
20260506142528 20 224 3.2 22.5 0.00 0.00 0.00 63 1009.7
20260506142027 20 257 9.7 32.2 0.00 0.00 0.00 62 1009.6
20260506141546 20 289 4.8 32.2 0.00 0.00 0.00 62 1009.7
20260506141025 20 279 9.7 32.2 0.00 0.00 0.00 62 1009.6
20260506140525 20 124 6.4 22.5 0.00 0.00 0.00 61 1009.7
20260506140048 20 254 4.8 29.0 0.00 0.00 0.00 62 1009.6
20260506135535 20 290 9.7 29.0 0.00 0.00 0.00 61 1009.5
20260506135029 20 256 6.4 27.4 0.00 0.00 0.00 62 1009.5
20260506134610 20 263 8.0 29.0 0.00 0.00 0.00 62 1009.4
20260506134027 20 246 9.7 29.0 0.00 0.00 0.00 62 1009.4
20260506133528 20 238 11.3 22.5 0.00 0.00 0.00 62 1009.6
20260506133042 20 280 4.8 16.1 0.00 0.00 0.00 63 1009.5
20260506132527 20 275 6.4 24.1 0.00 0.00 0.00 63 1009.4
20260506132024 20 231 8.0 24.1 0.00 0.00 0.00 63 1009.4
20260506131553 20 262 9.7 25.7 0.00 0.00 0.00 63 1009.4
20260506131030 20 70 6.4 25.7 0.00 0.00 0.00 62 1009.5
20260506130528 20 195 8.0 20.9 0.00 0.00 0.00 63 1009.7
20260506130040 20 198 8.0 29.0 0.00 0.00 0.00 63 1009.7
20260506125528 20 247 8.0 29.0 0.00 0.00 0.00 63 1009.8
20260506125027 20 257 6.4 22.5 0.00 0.00 0.00 63 1009.7
20260506124545 20 164 4.8 22.5 0.00 0.00 0.00 64 1009.8
20260506124030 20 202 4.8 27.4 0.00 0.00 0.00 64 1009.7
20260506123528 20 109 8.0 27.4 0.00 0.00 0.00 63 1009.7
20260506123047 20 121 8.0 20.9 0.00 0.00 0.00 64 1009.6
20260506122527 19 273 4.8 20.9 0.00 0.00 0.00 65 1009.7
20260506122027 19 175 3.2 20.9 0.00 0.00 0.00 65 1009.6
20260506121542 19 155 8.0 20.9 0.00 0.00 0.00 66 1009.8
20260506121025 19 159 6.4 24.1 0.00 0.00 0.00 66 1009.7
20260506120530 18 228 9.7 24.1 0.00 0.00 0.00 67 1009.7
20260506120043 18 251 8.0 19.3 0.00 0.00 0.00 68 1009.6
20260506115526 18 265 4.8 17.7 0.00 0.00 0.00 69 1009.6
20260506115024 18 166 9.7 19.3 0.00 0.00 0.00 69 1009.7
20260506114551 18 155 6.4 20.9 0.00 0.00 0.00 69 1009.7
20260506114027 18 189 4.8 22.5 0.00 0.00 0.00 69 1009.7
20260506113528 18 258 6.4 22.5 0.00 0.00 0.00 70 1009.7
20260506113045 18 281 8.0 25.7 0.00 0.00 0.00 70 1009.7
20260506112524 18 194 8.0 25.7 0.00 0.00 0.00 70 1009.7
20260506112027 18 230 6.4 19.3 0.00 0.00 0.00 70 1009.7
20260506111547 18 202 3.2 17.7 0.00 0.00 0.00 70 1009.8
20260506111027 17 179 8.0 17.7 0.00 0.00 0.00 71 1009.8
20260506110527 17 259 3.2 17.7 0.00 0.00 0.00 72 1009.8
20260506110040 17 243 4.8 17.7 0.00 0.00 0.00 72 1009.8
20260506105527 17 212 4.8 20.9 0.00 0.00 0.00 73 1009.8
20260506105028 17 248 4.8 20.9 0.00 0.00 0.00 73 1009.7
20260506104536 17 131 4.8 17.7 0.00 0.00 0.00 74 1009.7
20260506104028 16 259 4.8 17.7 0.00 0.00 0.00 75 1009.7
20260506103528 16 292 4.8 12.9 0.00 0.00 0.00 75 1009.8
20260506103039 16 244 4.8 14.5 0.00 0.00 0.00 75 1009.8
20260506102528 16 296 3.2 14.5 0.00 0.00 0.00 76 1009.8
20260506102025 16 241 4.8 16.1 0.00 0.00 0.00 76 1009.8
20260506101545 16 155 3.2 16.1 0.00 0.00 0.00 76 1009.9
20260506101028 16 238 3.2 12.9 0.00 0.00 0.00 76 1009.9
20260506100528 16 273 1.6 20.9 0.00 0.00 0.00 76 1009.9
20260506100044 16 256 4.8 20.9 0.00 0.00 0.00 76 1009.8
20260506095529 16 199 3.2 17.7 0.00 0.00 0.00 77 1009.7
20260506095028 16 229 3.2 17.7 0.00 0.00 0.00 76 1009.7
20260506094540 16 211 1.6 14.5 0.00 0.00 0.00 77 1009.7
20260506094030 16 215 4.8 11.3 0.00 0.00 0.00 77 1009.5
20260506093524 16 122 1.6 17.7 0.00 0.00 0.00 77 1009.6
20260506093036 17 193 3.2 17.7 0.00 0.00 0.00 77 1009.6
20260506092528 17 250 8.0 17.7 0.00 0.00 0.00 77 1009.5
20260506092028 17 134 4.8 17.7 0.00 0.00 0.00 77 1009.4
20260506091545 17 214 3.2 17.7 0.00 0.00 0.00 77 1009.4
20260506091027 17 79 1.6 17.7 0.00 0.00 0.00 77 1009.5
20260506090527 17 242 1.6 17.7 0.00 0.00 0.00 77 1009.5
20260506090044 17 219 4.8 19.3 0.00 0.00 0.00 76 1009.5
20260506085527 17 173 4.8 19.3 0.00 0.00 0.00 77 1009.6
20260506085024 17 289 6.4 14.5 0.00 0.00 0.00 77 1009.7
20260506084542 17 254 4.8 12.9 0.00 0.00 0.00 77 1009.7
20260506084031 17 216 3.2 12.9 0.00 0.00 0.00 77 1009.7
20260506083524 17 267 4.8 11.3 0.00 0.00 0.00 77 1009.9
20260506083051 17 277 3.2 14.5 0.00 0.00 0.00 77 1009.9
20260506082527 17 227 4.8 16.1 0.00 0.00 0.00 76 1010.0
20260506082030 17 146 6.4 16.1 0.00 0.00 0.00 77 1010.0
20260506081550 17 238 3.2 16.1 0.00 0.00 0.00 77 1010.0
20260506081028 17 250 1.6 16.1 0.00 0.00 0.00 77 1010.1
20260506080529 17 128 3.2 12.9 0.00 0.00 0.00 77 1010.0
20260506073527 17 153 4.8 20.9 0.00 0.00 0.00 76 1009.9
20260506073043 17 271 4.8 19.3 0.00 0.00 0.00 76 1009.7
20260506072526 17 144 4.8 14.5 0.00 0.00 0.00 76 1009.7
20260506072031 17 217 3.2 19.3 0.00 0.00 0.00 76 1009.8
20260506071551 17 144 6.4 19.3 0.00 0.00 0.00 76 1009.9
20260506071028 17 169 4.8 19.3 0.00 0.00 0.00 76 1009.9
20260506070527 17 184 3.2 14.5 0.00 0.00 0.00 75 1009.9
20260506062027 18 215 6.4 17.7 0.00 0.00 0.00 75 1009.9
20260506061543 18 166 4.8 16.1 0.00 0.00 0.00 75 1010.0
20260506061030 18 130 4.8 16.1 0.00 0.00 0.00 75 1009.9
20260506060525 18 263 6.4 17.7 0.00 0.00 0.00 75 1009.9
20260506051027 18 188 4.8 16.1 0.00 0.00 0.00 73 1010.4
20260506050527 18 245 3.2 16.1 0.00 0.00 0.00 72 1010.5
20260506045028 18 169 3.2 17.7 0.00 0.00 0.00 72 1010.6
20260506044542 18 238 6.4 17.7 0.00 0.00 0.00 72 1010.6
20260506044029 18 161 6.4 14.5 0.00 0.00 0.00 72 1010.7
20260506043528 18 182 4.8 20.9 0.00 0.00 0.00 72 1010.5
20260506043039 18 176 4.8 20.9 0.00 0.00 0.00 72 1010.6
20260506042528 18 240 4.8 20.9 0.00 0.00 0.00 71 1010.6
20260506042028 18 128 8.0 20.9 0.00 0.00 0.00 71 1010.7
20260506041546 18 246 3.2 12.9 0.00 0.00 0.00 71 1010.6
20260506041024 18 269 4.8 16.1 0.00 0.00 0.00 71 1010.5
20260506040527 18 189 3.2 16.1 0.00 0.00 0.00 70 1010.5
20260506040045 18 226 6.4 16.1 0.00 0.00 0.00 70 1010.5
20260506035526 18 252 4.8 16.1 0.00 0.00 0.00 70 1010.6
20260506035027 18 227 6.4 16.1 0.00 0.00 0.00 69 1010.5
20260506034543 18 111 4.8 16.1 0.00 0.00 0.00 69 1010.5
20260506034026 18 207 6.4 19.3 0.00 0.00 0.00 69 1010.6
20260506033528 18 237 4.8 22.5 0.00 0.00 0.00 68 1010.6
20260506033041 19 169 4.8 22.5 0.00 0.00 0.00 68 1010.5
20260506032526 19 205 8.0 22.5 0.00 0.00 0.00 68 1010.5
20260506032027 19 223 6.4 17.7 0.00 0.00 0.00 67 1010.6
20260506031545 19 254 6.4 17.7 0.00 0.00 0.00 67 1010.6
20260506031028 19 281 8.0 19.3 0.00 0.00 0.00 67 1010.6
20260506030525 19 241 4.8 19.3 0.00 0.00 0.00 67 1010.6
20260506030044 19 253 3.2 22.5 0.00 0.00 0.00 66 1010.7
20260506025529 19 184 4.8 22.5 0.00 0.00 0.00 66 1010.7
20260506025026 19 153 6.4 25.7 0.00 0.00 0.00 65 1010.7
20260506024557 19 105 6.4 25.7 0.00 0.00 0.00 65 1010.7
20260506024026 20 147 6.4 29.0 0.00 0.00 0.00 65 1010.8
20260506023526 20 229 6.4 29.0 0.00 0.00 0.00 64 1010.8
20260506023041 20 221 4.8 22.5 0.00 0.00 0.00 64 1010.8
20260506022532 20 238 8.0 22.5 0.00 0.00 0.00 63 1010.6
20260506022026 20 259 4.8 20.9 0.00 0.00 0.00 63 1010.6
20260506021541 20 244 6.4 20.9 0.00 0.00 0.00 62 1010.6
20260506021026 20 143 8.0 19.3 0.00 0.00 0.00 62 1010.7
20260506020526 20 254 6.4 17.7 0.00 0.00 0.00 61 1010.5
20260506020039 20 279 4.8 20.9 0.00 0.00 0.00 61 1010.6
20260506015526 20 202 8.0 30.6 0.00 0.00 0.00 60 1010.7
20260506015026 20 190 8.0 30.6 0.00 0.00 0.00 60 1010.6
20260506014548 20 189 9.7 30.6 0.00 0.00 0.00 59 1010.4
20260506014025 20 153 6.4 20.9 0.00 0.00 0.00 59 1010.3
20260506013525 20 111 6.4 22.5 0.00 0.00 0.00 58 1010.3
20260506013044 21 204 9.7 22.5 0.00 0.00 0.00 58 1010.3
20260506012526 21 186 6.4 22.5 0.00 0.00 0.00 57 1010.2
20260506012027 21 263 8.0 20.9 0.00 0.00 0.00 57 1010.1
20260506011602 21 78 9.7 20.9 0.00 0.00 0.00 57 1010.0
20260506011026 21 96 4.8 19.3 0.00 0.00 0.00 57 1010.2
20260506010525 21 263 6.4 30.6 0.00 0.00 0.00 57 1010.0
20260506010040 21 214 3.2 30.6 0.00 0.00 0.00 57 1010.0
20260506005525 21 250 6.4 30.6 0.00 0.00 0.00 57 1009.9
20260506005025 21 260 8.0 22.5 0.00 0.00 0.00 57 1010.0
20260506004559 21 200 8.0 19.3 0.00 0.00 0.00 57 1010.0
20260506004025 21 157 6.4 19.3 0.00 0.00 0.00 57 1009.8
20260506003527 21 115 3.2 16.1 0.00 0.00 0.00 57 1009.8
20260506003045 21 242 6.4 16.1 0.00 0.00 0.00 57 1009.7
20260506002525 21 138 4.8 16.1 0.00 0.00 0.00 57 1009.5
20260506002027 21 130 6.4 16.1 0.00 0.00 0.00 56 1009.5
20260506001545 21 254 3.2 16.1 0.00 0.00 0.00 56 1009.5
20260506001028 21 225 4.8 16.1 0.00 0.00 0.00 55 1009.5
20260506000528 22 200 6.4 20.9 0.00 0.00 0.00 54 1009.5
20260506000110 22 250 4.8 20.9 0.00 0.00 0.00 53 1009.4
20260505235527 22 143 6.4 17.7 0.00 0.00 0.00 52 1009.4
20260505235027 22 213 6.4 19.3 0.00 0.00 0.00 51 1009.5
20260505234547 22 222 6.4 19.3 0.00 0.00 0.00 49 1009.3
20260505234027 23 173 3.2 19.3 0.00 0.00 0.00 48 1009.4
20260505233530 23 166 6.4 17.7 0.00 0.00 0.00 47 1009.3
20260505233045 23 121 4.8 17.7 0.00 0.00 0.00 46 1009.2
20260505232527 23 273 4.8 17.7 0.00 0.00 0.00 45 1009.1
20260505232028 23 290 3.2 17.7 0.00 0.00 0.00 44 1009.1
20260505231551 24 211 8.0 19.3 0.00 0.00 0.00 43 1009.1
20260505231027 24 215 6.4 24.1 0.00 0.00 0.00 42 1009.0
20260505230527 25 200 8.0 24.1 0.00 0.00 0.00 41 1008.9
20260505230101 25 218 6.4 17.7 0.00 0.00 0.00 39 1008.9
20260505225530 25 167 9.7 20.9 0.00 0.00 0.00 37 1008.9
20260505225028 25 232 6.4 20.9 0.00 0.00 0.00 36 1008.9
20260505224545 25 280 6.4 20.9 0.00 0.00 0.00 36 1008.8
20260505224027 25 205 4.8 29.0 0.00 0.00 0.00 37 1008.9
20260505223525 25 200 9.7 29.0 0.00 0.00 0.00 36 1009.0
20260505223041 26 227 8.0 29.0 0.00 0.00 0.00 36 1009.0
20260505222526 26 154 8.0 27.4 0.00 0.00 0.00 37 1009.0
20260505222028 26 252 11.3 27.4 0.00 0.00 0.00 37 1008.9
20260505221552 26 224 6.4 25.7 0.00 0.00 0.00 37 1008.8
20260505221027 26 296 6.4 27.4 0.00 0.00 0.00 37 1008.7
20260505220528 26 244 11.3 32.2 0.00 0.00 0.00 36 1008.7
20260505220045 26 176 9.7 32.2 0.00 0.00 0.00 36 1008.7
20260505215527 26 247 11.3 32.2 0.00 0.00 0.00 36 1008.7
20260505215027 26 273 11.3 29.0 0.00 0.00 0.00 35 1008.7
20260505214541 26 317 6.4 33.8 0.00 0.00 0.00 35 1008.7
20260505214026 26 285 11.3 33.8 0.00 0.00 0.00 35 1008.6
20260505213527 27 252 9.7 25.7 0.00 0.00 0.00 35 1008.7
20260505213040 27 267 6.4 27.4 0.00 0.00 0.00 35 1008.5
20260505212527 27 220 8.0 30.6 0.00 0.00 0.00 34 1008.5
20260505212027 27 261 11.3 30.6 0.00 0.00 0.00 33 1008.4
20260505211547 27 266 8.0 27.4 0.00 0.00 0.00 33 1008.5
20260505211027 27 243 8.0 30.6 0.00 0.00 0.00 33 1008.2
20260505210527 27 253 12.9 37.0 0.00 0.00 0.00 33 1008.5
20260505210046 27 249 11.3 37.0 0.00 0.00 0.00 32 1008.3
20260505205525 27 278 8.0 29.0 0.00 0.00 0.00 32 1008.3
20260505205028 27 188 9.7 22.5 0.00 0.00 0.00 33 1008.2
20260505204549 27 257 9.7 30.6 0.00 0.00 0.00 32 1008.3
20260505204025 27 234 9.7 33.8 0.00 0.00 0.00 32 1008.2
20260505203525 27 257 9.7 33.8 0.00 0.00 0.00 31 1008.3
20260505203053 27 246 11.3 24.1 0.00 0.00 0.00 31 1008.3
20260505202525 27 206 8.0 38.6 0.00 0.00 0.00 32 1008.2